RH
44 51 42 20 13 14 13 15 15 16 17 16 15 15 17 20 24 28 29 28 28 29 29 27 25 23 22 22 23 22 21 21 21 21 22 22 22 22 22 22 23 23 23 23 24 24 24 24 25 25 25 25 26 27 28 31 36 43 51 58 64 67
41 48 43 25 14 13 13 14 14 15 16 15 14 16 17 21 26 29 31 30 30 31 31 30 26 24 24 24 25 24 22 22 22 22 22 22 22 22 22 23 23 23 23 23 23 24 24 24 24 24 25 25 25 27 31 35 38 42 48 56 63 63
44 46 42 27 15 12 13 13 14 14 14 14 15 16 18 22 27 31 33 32 32 33 32 31 28 25 26 27 27 26 24 23 23 23 23 23 24 23 23 24 24 24 24 24 25 24 24 24 25 25 27 28 29 33 39 44 46 48 51 56 57 51
45 44 38 24 15 13 13 13 13 13 14 14 15 17 19 24 30 33 35 34 34 33 32 32 30 29 28 28 27 26 26 26 26 25 24 25 26 26 27 29 30 30 30 30 30 28 27 27 27 30 35 38 41 45 49 51 51 50 49 49 44 39
44 40 31 21 14 13 13 13 13 13 14 14 16 18 20 26 33 35 36 36 36 34 33 34 34 33 30 28 28 28 29 31 33 31 29 29 30 32 36 41 43 44 45 46 46 44 42 41 42 45 49 52 53 55 54 52 49 45 42 42 41 39
43 37 27 19 14 13 13 13 13 14 14 15 17 18 22 29 35 37 38 39 38 35 35 36 37 36 31 29 30 32 35 40 45 43 38 36 38 45 51 55 56 57 59 62 62 62 61 60 59 58 59 58 56 53 50 46 41 37 37 40 44 45
42 39 28 19 16 14 14 13 13 14 15 16 18 20 25 32 37 40 40 41 39 37 37 37 38 36 31 30 33 38 45 52 56 56 55 54 57 60 60 57 56 57 57 57 57 56 56 55 54 53 52 49 46 42 40 38 36 36 37 40 44 47
43 43 33 25 20 17 15 14 14 15 16 17 19 22 28 34 40 42 43 43 40 39 40 40 39 35 31 32 37 45 54 61 64 64 65 64 62 57 52 48 46 44 42 40 39 38 37 37 37 37 37 37 36 36 37 38 40 41 41 41 43 46
46 47 40 30 22 17 15 14 14 15 16 18 21 25 32 39 43 44 46 46 43 43 44 43 40 34 32 35 39 49 58 62 64 63 61 57 50 44 41 37 33 29 27 28 28 28 27 27 26 26 29 30 31 33 34 37 38 38 38 39 41 43
51 50 42 31 21 16 15 15 16 17 18 21 24 29 37 44 46 47 48 48 47 47 47 44 37 32 33 35 42 55 61 62 62 57 50 45 39 34 30 26 23 23 23 23 24 25 27 26 26 25 25 24 23 23 22 23 24 25 28 31 32 35
51 46 36 26 18 16 16 18 19 20 22 25 29 34 43 48 49 50 50 50 49 49 48 42 34 30 31 37 49 60 63 61 55 45 37 34 31 28 24 22 22 24 24 24 24 24 25 24 23 21 19 17 16 14 14 13 14 16 19 23 26 30
38 32 25 21 20 23 26 29 34 38 39 39 41 44 48 51 51 54 54 51 50 49 45 37 30 26 29 43 58 62 59 53 44 35 29 28 26 24 22 22 25 28 28 27 24 22 20 17 16 18 18 15 14 15 16 17 19 21 24 27 31 36
31 29 29 34 41 46 49 53 58 58 54 51 51 50 51 54 55 57 55 51 50 48 40 32 26 25 38 57 63 59 54 47 37 29 26 27 26 24 26 29 31 30 26 21 18 16 13 12 16 21 19 14 14 18 20 21 23 25 27 30 34 38
42 44 47 54 63 69 69 68 66 60 54 54 53 52 54 57 58 57 53 50 49 44 37 30 29 39 57 66 61 57 51 40 29 26 33 38 34 31 33 31 27 21 17 14 12 11 11 14 19 19 15 13 15 18 20 21 22 23 25 28 31 34
55 56 57 59 67 73 75 73 66 59 57 57 55 54 54 56 56 54 51 49 46 40 34 32 42 59 69 64 59 55 43 31 31 39 48 47 40 38 33 24 18 15 13 12 11 12 13 15 16 13 11 12 14 15 16 19 21 21 23 24 26 28
60 59 58 59 65 69 75 75 66 60 59 56 55 52 51 52 53 52 50 47 42 36 34 40 56 69 70 62 54 44 34 35 43 51 50 43 38 35 27 18 15 15 13 12 12 13 14 14 12 11 11 11 12 12 12 14 16 17 20 22 22 22
63 59 59 61 64 69 78 78 67 61 57 52 52 50 49 51 52 52 50 45 40 33 36 51 65 71 69 56 41 35 36 40 44 46 41 32 27 24 19 16 15 14 13 13 13 13 13 13 13 13 12 13 13 12 12 12 12 14 15 16 16 16
65 61 60 60 64 74 84 81 70 61 54 51 51 50 51 53 54 53 51 47 40 33 44 62 69 70 62 43 34 39 42 39 38 36 29 21 18 17 16 16 15 14 14 13 13 14 14 14 15 15 14 14 14 13 13 13 13 14 14 14 14 14
67 63 60 60 65 74 80 78 70 60 53 51 52 53 56 56 58 57 55 51 43 41 57 71 72 67 55 39 39 50 48 39 33 26 20 18 18 18 17 16 15 15 15 15 15 15 17 17 18 17 16 15 15 15 14 14 14 14 14 15 15 15
67 63 60 59 61 65 70 72 68 60 55 54 56 59 61 60 62 62 59 58 55 60 72 76 71 61 52 48 51 55 48 35 26 22 20 20 19 18 17 17 16 15 15 16 17 18 19 20 20 20 18 16 15 16 15 15 15 15 15 16 16 16
65 61 58 54 55 62 68 70 68 63 60 60 62 65 65 65 66 66 66 68 70 75 79 75 66 56 55 59 55 46 36 27 23 23 22 20 19 18 18 17 16 16 16 17 18 20 20 19 20 21 21 19 18 18 17 17 17 17 17 17 18 18
64 60 57 51 58 70 72 71 70 68 67 68 70 69 69 71 71 71 73 75 78 80 77 70 61 58 61 58 44 32 25 24 24 23 21 21 20 18 18 18 17 17 18 18 18 19 19 19 19 19 19 20 20 20 20 19 19 18 17 18 18 18
62 57 56 56 67 76 73 71 72 72 76 77 76 75 76 75 76 76 76 77 80 79 72 65 64 65 58 43 30 25 24 24 23 22 22 21 20 19 19 18 17 18 18 18 18 18 19 19 19 18 17 17 17 18 19 19 19 18 18 18 19 20
57 56 56 63 76 78 69 69 74 76 79 81 82 83 79 77 80 80 78 78 77 73 68 63 61 56 42 29 24 24 23 23 23 23 23 21 20 20 19 18 19 19 18 18 18 20 20 19 18 16 14 13 12 12 12 13 14 14 14 15 16 18
56 57 57 70 84 80 70 72 78 82 81 80 85 85 80 80 83 81 78 77 72 67 65 59 48 37 29 25 24 23 23 23 23 23 23 21 20 19 18 19 19 19 18 19 20 21 20 19 18 15 12 10 8 7 6 6 6 6 6 7 7 8
55 56 60 77 88 85 82 83 84 86 87 84 84 83 80 81 82 80 79 76 70 65 62 56 41 29 25 25 23 23 24 24 24 24 23 21 19 19 19 19 19 19 19 20 21 21 20 20 18 16 13 11 8 6 5 4 4 2 1 1 1 2
54 55 66 82 87 87 89 84 77 81 87 85 84 85 83 81 81 80 80 75 66 63 60 51 36 26 24 24 23 24 24 24 24 23 22 20 20 20 19 19 18 19 21 21 21 20 20 20 19 18 16 14 11 9 7 5 4 3 2 1 1 1
53 58 71 82 86 89 85 74 74 83 87 84 84 89 88 85 81 76 76 70 62 62 56 42 30 25 25 24 24 25 24 24 23 21 21 21 20 20 18 18 19 21 22 21 20 20 21 21 20 19 17 15 13 11 9 7 5 4 3 2 1 1
54 63 75 82 89 90 80 73 79 86 87 83 83 87 87 86 82 73 68 64 60 57 47 33 28 27 25 24 24 25 24 23 21 21 22 21 21 19 18 19 20 22 21 20 20 21 21 20 20 19 17 16 15 13 11 8 6 3 2 2 2 1
58 67 75 85 94 91 83 82 85 85 83 82 83 84 83 84 77 63 57 54 50 45 37 31 30 28 25 24 24 24 22 21 21 22 23 22 21 19 19 20 21 21 20 20 20 21 21 21 19 18 17 16 14 12 9 6 4 2 1 1 1 1
64 71 78 90 95 85 82 86 88 88 83 80 82 83 85 84 70 55 51 48 43 38 35 33 31 27 25 24 24 22 22 22 23 24 23 21 20 18 19 20 21 20 20 20 20 21 21 20 19 18 17 15 13 11 8 5 3 2 1 1 1 1
72 77 81 91 88 77 80 85 85 86 83 82 84 83 83 79 66 56 52 48 42 38 35 32 29 26 25 24 22 22 22 23 24 23 21 20 19 19 19 20 20 20 20 20 21 21 20 20 19 18 16 15 14 12 9 6 3 2 1 1 1 1
76 76 75 80 80 78 83 84 83 85 85 85 85 82 76 71 65 59 52 44 39 36 34 31 29 26 24 23 22 22 23 23 22 21 20 19 19 19 19 20 20 20 20 20 20 20 20 19 18 17 16 15 13 10 7 5 3 2 1 1 1 1
73 74 73 76 79 81 83 82 84 88 87 83 81 77 68 64 65 59 47 39 35 34 35 32 28 26 24 23 22 22 22 21 20 20 20 20 19 19 19 19 19 20 20 20 20 20 19 18 16 15 14 12 10 7 5 3 2 1 1 1 1 1
75 78 78 78 79 81 82 83 87 90 86 82 79 74 64 62 64 53 42 37 37 38 38 33 28 26 25 24 23 22 21 20 21 21 21 20 20 19 19 20 20 20 21 20 20 20 18 15 13 12 10 8 6 5 3 3 1 1 1 1 1 1
77 81 80 79 81 84 84 87 89 86 84 82 78 71 63 59 55 44 40 40 40 41 39 34 29 26 26 26 25 24 23 23 23 22 21 20 20 20 20 20 21 21 21 21 20 18 15 12 10 9 7 5 4 3 3 2 1 1 1 1 2 2
75 80 81 79 81 83 83 87 87 83 82 80 73 65 57 51 46 41 40 40 40 42 41 35 29 27 28 27 27 27 27 27 26 24 23 22 21 21 21 21 22 22 22 20 18 15 12 9 7 6 4 4 3 2 2 1 1 2 1 2 2 2
Wind_Speed
14 17 22 24 24 23 22 21 19 17 16 14 11 9 8 6 5 5 6 7 7 7 6 6 6 6 5 5 5 5 5 5 5 5 5 6 6 6 7 8 8 9 10 10 11 11 11 12 12 13 14 15 15 15 15 15 15 14 15 15 15 15
13 16 21 24 23 22 21 20 19 17 16 13 11 9 8 7 6 5 6 7 7 7 6 6 6 6 6 6 5 6 6 6 6 6 6 7 7 7 8 9 9 10 11 11 12 12 13 13 13 14 15 16 16 16 16 16 17 17 16 16 17 17
13 16 20 23 23 22 21 19 18 17 16 13 11 10 9 8 6 6 7 7 8 8 7 6 6 6 7 7 6 6 7 8 8 8 8 8 8 9 9 10 10 11 12 13 13 14 14 14 15 15 15 16 17 18 18 18 17 17 17 17 18 17
14 17 20 22 22 20 20 19 18 18 16 14 12 11 10 8 7 6 7 8 8 8 7 7 7 8 8 8 8 8 8 9 10 10 9 9 9 10 10 11 12 12 13 14 14 15 16 16 16 16 16 16 17 18 18 18 17 17 17 17 18 17
15 18 20 21 20 20 20 19 19 18 16 14 12 11 10 9 7 8 8 9 9 9 8 8 8 9 9 9 9 9 9 10 11 11 11 10 10 10 11 12 12 13 14 15 15 15 16 16 16 16 16 16 16 17 18 18 18 17 17 17 17 17
15 17 20 21 20 20 21 20 20 18 16 14 12 11 11 9 8 9 10 10 10 9 9 9 10 10 11 10 9 9 10 10 11 11 11 11 11 11 11 12 13 13 14 14 14 14 14 14 15 15 15 15 16 17 17 18 18 17 17 16 17 18
14 18 21 22 22 22 22 21 20 19 17 14 12 12 11 10 10 10 10 10 10 10 10 11 11 11 11 11 10 10 11 11 11 11 11 10 10 10 11 11 11 11 12 12 12 12 12 12 13 13 14 15 16 17 17 18 18 18 18 17 17 18
14 18 21 22 23 23 22 22 20 18 16 14 13 13 12 11 11 10 11 11 11 11 12 12 12 12 12 11 10 10 11 11 10 10 10 10 10 9 9 9 9 10 10 11 11 12 12 12 13 14 15 16 17 18 18 18 18 18 18 18 17 17
15 19 21 22 22 22 21 19 17 16 14 14 14 14 12 11 11 11 12 12 13 13 13 13 13 12 12 12 11 11 11 11 10 9 9 9 9 8 8 8 9 9 10 10 12 12 13 14 15 16 17 18 18 18 19 19 19 19 19 18 17 17
15 18 19 20 20 19 17 15 15 15 14 15 16 14 12 12 12 13 13 13 14 14 13 14 13 13 12 12 11 12 12 11 9 9 8 7 8 8 8 9 10 10 11 12 13 13 14 15 16 17 17 18 18 19 19 19 19 19 19 18 17 17
14 16 17 17 18 16 14 14 14 15 16 17 16 14 14 14 14 14 14 14 14 14 14 14 13 12 12 12 12 12 11 9 8 7 7 7 7 8 9 10 11 11 12 13 13 13 13 13 14 15 16 17 18 18 18 18 18 17 17 17 16 16
13 14 15 16 16 14 13 14 15 15 17 17 16 15 16 16 15 14 15 15 15 15 14 14 13 13 12 12 13 11 9 8 7 6 6 7 8 9 9 9 9 9 10 11 11 12 12 12 13 14 14 15 15 15 15 15 15 15 15 14 14 14
13 15 16 16 15 14 14 14 13 13 15 15 15 16 17 16 15 15 15 15 16 15 15 14 13 13 13 13 12 10 8 7 7 6 6 6 7 7 7 7 7 8 9 10 11 12 12 12 12 13 14 14 13 13 13 13 14 14 14 13 13 13
15 17 17 16 15 14 13 12 10 11 12 13 14 16 16 16 15 16 16 16 17 16 15 14 14 14 13 12 10 8 7 7 6 5 4 5 6 6 6 7 8 9 10 11 12 12 12 12 12 14 15 14 14 13 13 13 13 13 13 13 14 14
17 17 17 16 15 14 12 10 8 9 11 13 14 15 15 15 16 17 17 17 17 16 15 14 14 14 13 11 9 8 7 6 5 4 4 5 6 6 7 8 9 10 11 12 12 12 11 11 12 13 14 14 14 13 14 14 14 14 14 14 14 15
17 17 18 17 15 13 11 8 8 10 12 14 14 15 15 16 17 17 17 17 17 15 15 14 14 13 11 10 8 7 6 5 4 4 5 6 6 7 8 8 8 10 11 11 11 11 11 10 11 12 13 13 13 14 14 14 15 15 15 15 15 16
16 17 18 17 15 13 10 7 8 11 13 14 15 15 16 17 18 17 17 17 16 15 14 14 13 12 10 8 7 5 5 4 5 5 5 6 7 8 8 8 8 9 9 9 9 10 10 10 11 12 13 13 13 14 14 14 14 15 15 16 16 16
17 18 19 18 15 12 9 7 9 12 14 15 15 16 16 17 17 17 17 16 16 15 14 13 12 11 9 8 6 4 4 4 5 5 5 6 7 8 8 8 8 8 8 8 8 9 9 10 11 12 12 13 13 14 14 14 14 15 16 16 16 16
19 20 20 19 16 12 8 8 11 14 15 16 16 16 17 17 17 17 17 16 16 14 13 13 11 10 8 7 5 5 5 5 5 4 5 5 6 7 8 7 7 7 7 7 8 8 9 10 11 12 13 12 13 14 15 14 15 16 16 16 17 17
21 21 21 20 16 12 9 9 12 14 16 16 16 16 17 17 17 17 16 16 15 14 13 12 10 9 7 6 6 6 6 5 4 4 4 5 6 6 6 7 7 7 7 7 8 9 10 10 12 13 14 14 13 14 15 16 16 17 17 17 17 18
23 23 22 20 15 11 9 10 12 14 15 15 15 17 17 17 17 16 16 15 14 12 11 10 9 8 7 6 6 6 6 5 4 4 4 5 6 5 5 6 7 7 8 8 9 10 11 11 12 12 14 15 15 15 16 16 17 17 17 18 19 19
24 23 22 18 14 11 10 11 12 13 15 16 17 18 17 16 16 16 15 14 13 11 10 9 9 8 8 7 7 6 5 5 4 4 4 5 5 5 5 6 7 7 8 8 9 10 11 12 12 12 12 13 15 16 17 17 17 18 18 19 20 20
25 23 21 17 14 12 12 13 14 15 16 17 18 18 17 16 16 16 14 12 12 10 9 9 9 8 7 6 6 5 5 5 5 4 4 5 5 5 6 7 7 7 8 9 10 10 11 12 13 14 14 14 14 15 17 18 19 21 21 21 21 21
26 24 20 18 16 16 16 17 17 18 18 18 18 17 16 15 15 14 12 11 11 10 9 9 8 8 6 5 5 5 5 5 5 5 5 4 5 5 6 6 6 7 8 9 9 10 12 14 15 17 17 17 16 15 15 16 17 20 21 21 21 22
26 23 21 19 18 19 20 19 19 19 19 18 17 16 14 13 13 12 11 11 11 11 10 9 8 6 5 5 5 5 5 5 5 5 5 5 6 6 5 5 6 7 7 8 9 12 14 16 17 18 18 18 18 17 16 15 15 16 17 18 18 20
27 24 22 20 20 22 21 20 19 18 18 16 15 14 13 13 12 11 11 11 11 11 11 9 7 5 5 5 5 5 5 5 6 6 6 7 6 6 5 5 5 6 6 7 10 13 16 17 18 19 19 19 19 18 18 17 16 15 15 16 17 18
27 25 23 22 23 23 21 19 18 17 17 15 14 14 12 11 11 11 12 13 13 12 11 9 7 5 5 5 4 4 5 6 6 7 7 7 6 5 5 4 4 5 6 8 11 14 17 18 19 19 19 20 20 20 20 19 18 17 15 16 18 19
28 25 24 24 24 22 20 19 18 17 17 15 14 14 12 10 11 12 13 14 13 12 10 8 7 6 5 5 5 4 5 6 7 8 8 7 6 5 4 4 3 4 7 9 12 15 17 18 19 19 20 21 22 22 22 22 22 21 19 18 18 19
29 27 26 26 24 20 19 19 18 17 15 13 14 14 13 12 11 11 12 13 12 11 9 8 8 6 5 5 5 5 6 7 7 8 7 7 6 5 4 3 4 5 8 11 13 15 16 17 18 19 20 22 23 24 25 25 25 24 23 22 20 20
30 28 28 27 22 18 18 18 18 16 14 13 14 15 16 15 13 11 11 11 10 10 9 8 7 6 5 4 5 5 6 7 7 7 7 7 6 5 4 4 5 7 10 12 13 14 16 17 18 19 21 22 24 25 25 25 25 24 24 23 22 22
30 29 29 25 19 18 19 18 18 16 15 15 16 18 17 15 14 12 10 10 9 9 9 8 6 5 4 5 5 5 6 7 7 7 7 7 6 5 5 5 7 9 11 13 14 15 16 17 18 19 21 22 23 24 24 24 24 24 23 23 22 21
29 29 27 22 17 18 19 18 18 16 16 18 18 18 16 15 15 12 10 10 9 9 8 7 6 5 5 5 5 5 6 6 7 7 7 7 6 6 6 7 9 11 12 14 15 16 17 18 19 20 21 22 23 24 25 25 25 25 25 24 24 23
28 28 25 21 18 19 20 19 18 15 16 18 19 18 16 17 15 12 10 9 8 8 7 6 6 5 5 5 5 5 5 6 6 7 7 7 7 7 8 9 11 12 14 15 16 17 18 19 20 21 22 23 24 25 25 26 26 26 26 26 25 24
27 27 25 22 19 20 20 18 16 14 14 16 18 17 17 16 13 11 9 9 9 8 7 6 6 6 5 5 4 5 5 6 6 7 7 8 8 8 9 11 12 13 15 16 17 18 19 20 20 21 22 23 24 25 26 26 27 26 26 26 25 24
26 26 25 21 19 19 18 15 13 12 14 18 19 17 16 14 11 10 9 10 10 9 7 7 6 6 5 5 4 5 5 6 7 8 8 9 9 10 11 12 13 14 16 17 18 19 20 20 21 22 23 24 24 25 26 27 27 26 26 26 26 26
24 25 23 18 19 19 15 13 11 10 14 20 21 17 15 12 10 10 10 10 9 7 7 7 6 6 5 4 5 5 6 7 8 9 9 10 10 11 12 13 14 15 17 18 19 20 20 21 22 23 23 24 25 25 26 26 26 26 26 26 27 28
22 23 21 19 19 15 9 10 11 12 16 20 19 16 14 12 11 11 10 9 8 7 7 7 6 6 5 5 6 6 7 8 9 10 10 11 12 13 14 14 15 16 17 18 19 20 21 21 22 23 23 24 25 25 25 25 25 25 26 27 29 30
Wind_Direction
236 228 223 222 223 225 228 231 233 237 242 244 243 245 248 250 261 278 280 275 274 276 276 278 277 275 276 271 267 264 257 255 252 250 256 262 268 271 271 273 275 277 279 281 284 287 289 293 298 301 305 308 311 314 316 316 316 316 316 315 315 315
236 228 221 221 223 225 229 232 235 240 243 242 241 243 243 244 250 263 270 270 270 272 273 273 272 270 269 267 264 264 262 258 257 255 256 259 263 266 268 272 276 279 282 283 285 286 289 291 295 298 301 305 307 309 310 311 313 313 314 315 315 315
232 226 220 219 221 224 228 232 235 239 240 237 237 238 240 242 246 257 263 264 265 264 266 266 264 263 260 259 258 260 263 261 260 259 259 261 262 265 267 270 274 276 278 280 283 284 287 289 292 296 299 303 304 306 307 308 310 311 312 312 311 312
228 223 218 217 219 222 226 230 233 235 234 232 233 235 238 240 245 255 259 258 259 258 259 262 262 260 257 254 253 256 261 263 263 262 262 264 266 269 272 276 278 279 280 282 284 286 287 290 293 296 299 301 302 302 303 304 305 306 308 308 307 309
226 220 215 214 217 221 225 228 231 231 230 230 232 234 235 238 245 252 254 254 253 254 255 260 263 260 258 255 257 261 265 268 268 268 268 269 272 277 279 282 283 283 285 285 285 286 287 289 291 292 294 295 295 296 297 299 301 302 304 305 307 310
228 221 216 212 214 219 223 226 228 229 229 230 230 232 233 235 243 248 250 251 251 252 253 256 259 258 258 258 262 268 271 272 273 273 275 276 277 279 281 284 285 284 284 285 285 285 284 285 286 287 288 289 290 292 294 296 299 301 304 306 307 308
233 226 218 214 215 218 222 224 226 228 229 228 228 229 229 232 239 246 248 248 248 248 250 253 255 256 257 259 265 272 276 277 278 279 278 279 278 277 282 286 287 286 285 287 289 289 288 287 288 289 290 290 291 293 295 296 299 302 305 306 305 304
234 228 222 220 220 221 223 225 228 231 231 230 230 228 227 232 239 244 245 244 243 243 247 250 253 255 257 261 268 273 277 278 280 282 280 277 278 280 284 288 290 290 292 294 295 296 296 296 296 296 295 295 297 297 298 298 299 301 302 302 302 301
234 229 224 223 221 222 224 227 232 236 237 235 233 229 228 233 237 241 242 239 239 240 244 247 250 253 258 264 270 275 277 279 282 283 279 277 282 286 288 291 294 296 298 299 299 301 304 305 304 303 302 301 301 300 299 299 298 298 298 299 300 301
226 223 222 221 219 221 224 230 236 240 242 239 235 232 231 232 232 235 237 237 237 239 242 244 247 252 260 267 270 274 276 277 279 280 281 283 286 292 298 303 305 307 307 306 306 307 308 307 306 305 303 301 300 299 298 296 295 296 298 300 302 304
210 213 215 217 218 220 224 230 237 240 241 240 238 235 232 229 228 230 233 234 235 238 242 244 246 252 259 265 268 270 269 269 271 277 284 289 294 301 307 310 309 308 307 306 306 306 305 304 303 301 301 300 300 299 299 299 301 303 306 308 310 311
192 200 207 213 216 217 221 228 234 238 240 242 241 236 230 227 226 226 229 231 233 236 240 243 247 253 257 261 265 263 260 260 263 271 285 297 306 307 306 306 304 302 302 303 305 307 307 306 303 303 304 305 306 308 311 314 317 320 321 321 321 320
190 200 207 211 210 210 215 222 229 235 241 239 234 231 228 226 225 224 224 226 232 235 237 242 247 251 253 255 257 257 255 259 266 276 290 304 304 300 301 301 301 303 307 310 312 314 314 312 311 312 315 317 321 325 326 327 329 330 329 328 327 325
200 208 210 209 205 203 208 214 224 236 239 231 225 226 228 227 223 221 221 223 228 234 237 240 244 246 248 248 246 249 256 266 278 284 290 300 298 296 302 305 310 316 319 319 320 322 321 320 321 322 325 330 334 333 332 332 332 332 330 328 328 328
210 217 216 212 207 203 204 209 225 238 235 228 226 228 230 229 224 220 219 222 226 230 234 237 241 244 244 240 237 243 254 267 277 276 278 291 296 299 307 315 324 327 326 329 330 332 332 330 328 329 333 339 339 335 335 334 333 332 329 328 329 330
220 225 221 214 207 203 203 209 226 234 231 229 229 230 230 230 228 225 223 225 227 229 233 237 241 244 240 232 230 239 247 252 259 264 276 289 296 301 309 319 327 330 333 339 340 339 339 337 334 335 340 343 340 338 339 337 334 331 328 327 328 328
220 221 217 209 202 202 205 214 228 235 236 234 231 231 230 231 231 229 228 228 230 231 234 239 244 244 236 227 227 234 242 244 253 267 282 294 300 303 309 321 331 337 343 348 344 340 338 338 338 338 341 343 340 339 340 338 335 331 328 326 326 327
214 212 209 205 202 205 212 222 233 240 241 237 234 233 230 230 231 230 230 232 233 234 236 241 246 243 231 225 226 233 241 248 261 276 290 298 301 303 311 327 340 346 350 350 344 340 339 339 341 338 339 340 337 335 335 335 333 329 326 326 326 327
209 205 204 206 208 212 218 230 240 245 244 239 234 232 230 229 229 229 230 232 235 235 236 242 246 238 226 225 232 240 245 251 264 281 291 296 298 303 316 333 344 348 351 349 343 344 345 342 341 339 339 340 336 333 332 332 330 327 325 325 324 324
207 202 204 208 212 217 225 236 243 245 244 241 235 232 232 230 228 229 229 231 233 233 234 240 239 226 220 229 238 245 253 261 273 282 286 289 295 304 321 334 338 342 346 350 349 349 349 347 344 340 338 340 341 336 333 333 331 326 324 323 322 321
205 203 206 210 214 223 233 240 244 246 244 241 238 236 235 232 229 228 227 228 231 231 230 229 223 216 221 232 237 246 258 269 273 273 276 282 293 307 322 330 332 337 345 350 352 351 351 351 349 343 336 336 338 336 332 330 326 321 320 320 319 318
203 205 209 213 218 226 235 238 238 241 241 238 236 235 233 230 227 228 227 227 229 229 222 213 210 214 223 228 235 248 261 269 268 265 274 284 298 311 317 322 327 335 344 349 355 359 357 354 351 347 340 333 331 329 326 324 319 316 316 317 317 315
200 205 210 215 221 223 227 232 229 227 230 233 233 231 228 225 225 228 226 224 227 224 210 204 210 217 222 227 240 257 267 272 272 271 282 295 304 307 309 315 323 334 346 354 4 8 3 357 351 347 344 338 332 325 321 320 318 316 318 319 316 313
199 206 211 216 222 220 220 226 226 224 225 226 226 225 225 223 224 227 224 219 220 211 201 205 212 217 222 233 250 265 277 281 281 284 292 301 300 299 302 310 323 340 353 1 8 7 2 358 354 351 348 344 340 334 328 324 320 317 318 318 315 311
202 209 215 219 221 220 220 222 223 224 226 225 224 224 225 223 224 227 221 213 207 200 198 205 211 218 229 243 258 273 283 284 286 292 297 299 296 296 301 316 333 347 356 3 3 360 359 359 358 356 353 350 348 345 342 338 332 327 325 322 316 313
206 213 220 222 222 222 219 218 221 224 227 227 227 229 231 227 225 225 217 207 200 198 201 208 216 230 240 251 268 278 281 282 287 293 297 297 297 301 314 332 344 351 357 356 354 355 358 360 360 358 356 354 351 349 347 344 341 340 339 334 326 322
211 218 225 224 223 222 220 221 226 230 230 228 228 230 231 229 224 218 210 203 200 201 206 213 225 239 247 262 277 281 281 282 287 292 295 296 300 311 327 340 347 352 352 349 350 354 357 357 357 358 358 356 353 351 348 345 342 341 341 338 333 330
215 223 227 227 225 223 227 232 231 231 230 225 225 227 225 221 214 208 203 201 202 204 210 218 229 239 251 268 277 277 277 280 286 291 294 298 306 317 329 336 342 345 343 345 350 353 353 352 353 355 356 355 354 352 349 346 344 342 340 339 335 332
220 226 231 232 228 224 231 234 230 231 229 225 223 221 215 207 201 197 196 198 202 204 211 220 228 236 250 266 270 271 275 281 287 291 296 302 309 316 317 320 330 337 340 345 348 348 346 346 347 349 351 352 352 351 350 347 344 342 339 337 333 329
223 229 235 235 228 225 229 229 229 226 224 226 221 214 208 196 184 182 183 188 194 200 211 221 228 239 253 265 269 272 279 285 290 295 300 304 305 304 302 313 328 336 341 343 343 341 340 340 342 344 347 349 350 349 347 344 341 338 335 334 332 330
229 234 238 235 230 232 230 226 229 224 218 218 213 213 208 184 169 172 175 182 190 201 213 221 229 242 254 263 270 276 282 287 293 299 302 301 299 299 305 318 327 332 336 337 336 335 335 335 337 341 344 346 346 344 342 340 337 335 333 333 332 330
235 238 240 236 233 236 229 225 229 227 222 213 202 206 200 170 164 174 177 186 196 206 215 219 227 240 250 259 267 274 281 289 297 301 302 301 303 305 311 316 321 326 329 330 330 329 329 331 334 338 341 341 341 340 339 337 335 334 333 334 335 335
237 240 240 236 233 231 225 222 222 222 225 212 194 190 182 167 168 177 181 190 203 213 216 218 225 237 246 254 264 273 283 294 300 303 304 304 306 306 308 311 315 321 324 324 325 325 326 328 331 334 336 337 338 337 337 335 335 335 335 335 337 336
238 239 236 230 230 228 222 222 220 217 217 203 188 181 175 171 173 178 187 196 209 219 218 217 224 233 244 252 266 278 289 300 303 305 305 304 303 302 304 308 312 318 320 321 321 321 322 325 328 331 332 334 335 336 336 336 335 335 335 335 334 333
237 238 234 228 230 226 213 213 220 219 206 188 180 178 175 176 179 184 197 207 215 222 218 219 223 230 242 254 271 285 295 302 305 305 303 300 300 300 303 307 312 316 318 318 318 318 320 323 327 329 331 333 335 336 336 335 335 335 335 334 334 334
234 237 238 235 234 226 203 196 208 208 194 180 174 175 176 180 187 196 210 216 218 220 218 222 225 232 246 260 275 286 296 301 304 303 301 301 301 302 305 308 312 314 315 315 315 316 319 323 326 328 331 333 334 335 335 335 335 335 336 336 337 338
234 240 246 241 233 228 202 192 195 182 179 177 172 173 178 188 200 210 217 217 216 218 220 224 229 238 252 264 272 282 291 297 301 303 303 305 304 305 307 309 311 312 312 312 313 316 320 323 326 328 330 332 333 334 335 336 336 336 338 340 341 341